Tracking 17844 objects as of 27-August-2016
HD Live streaming from Space Station
objects crossing your sky now

METEOR 2-6 DEB

Track METEOR 2-6 DEB now!
10-day predictions


NORAD ID: 31406
Int'l Code: 1980-073H
Perigee: 787.9 km
Apogee: 866.5 km
Inclination: 81.2 °
Period: 101.3 minutes
Semi major axis: 7198 km
RCS: 0.0145 m2 (small)
Launch date: September 9, 1980
Source: Commonwealth of Independent States (former USSR) (CIS)
Launch site: PLESETSK MISSILE AND SPACE COMPLEX (PKMTR)

Note: This is SATELLITE DEBRIS
Your satellite tracking list
Your tracking list is empty





NASA's NSSDC Master Catalog

Two Line Element Set (TLE):
1 31406U 80073H   16223.04945400  .00002227  00000-0  99588-3 0  9997
2 31406  81.2199 338.8991 0054633 168.4135 191.8314 14.21565045503363
Source of the keplerian elements: AFSPC

N2YO: 484